When you browse on this site, cookies collect data to enhance your experience and personalize the content and advertising you see.
Visit our Privacy Policy to learn more. By continuing to use the site, you agree to this use of cookies and data.
  • In Germany
  • List of Countries
  • For 7 days
  • Water Temperature
  • Weather Map
  • Weather Widgets
  • user-avatar
    Login

    Hourly Weather Konary

    Today, 2 June, Tuesday

    Time Temperature Precipitation Wind Pressure Humidity
    00:00 +10°C° 0.6 mm 3 mps 751 mmHg 87%
    01:00 +9°C° 0.6 mm 2 mps 751 mmHg 90%
    02:00 +9°C° 0 mm 3 mps 751 mmHg 91%
    03:00 +8°C° 0 mm 3 mps 751 mmHg 92%
    04:00 +8°C° 0 mm 3 mps 750 mmHg 93%
    05:00 +9°C° 0 mm 3 mps 750 mmHg 87%
    06:00 +10°C° 0 mm 4 mps 750 mmHg 80%
    07:00 +12°C° 0 mm 5 mps 751 mmHg 74%
    08:00 +13°C° 0 mm 5 mps 750 mmHg 67%
    09:00 +14°C° 0 mm 6 mps 750 mmHg 61%
    10:00 +15°C° 0 mm 6 mps 749 mmHg 55%
    11:00 +16°C° 0 mm 6 mps 749 mmHg 54%
    12:00 +16°C° 0 mm 7 mps 749 mmHg 53%
    13:00 +17°C° 0 mm 7 mps 749 mmHg 52%
    14:00 +17°C° 0.1 mm 6 mps 748 mmHg 55%
    15:00 +16°C° 0.1 mm 6 mps 748 mmHg 59%
    16:00 +16°C° 0.1 mm 5 mps 747 mmHg 62%
    17:00 +15°C° 0.2 mm 5 mps 747 mmHg 67%
    18:00 +14°C° 0.2 mm 4 mps 747 mmHg 71%
    19:00 +13°C° 0.2 mm 4 mps 747 mmHg 76%
    20:00 +12°C° 0 mm 3 mps 747 mmHg 79%
    21:00 +11°C° 0 mm 3 mps 746 mmHg 82%
    22:00 +10°C° 0 mm 2 mps 746 mmHg 86%
    23:00 +9°C° 0 mm 2 mps 746 mmHg 88%

    Tomorrow, 3 June, Wednesday

    Time Temperature Precipitation Wind Pressure Humidity
    00:00 +9°C° 0 mm 2 mps 746 mmHg 90%
    01:00 +8°C° 0 mm 2 mps 746 mmHg 92%
    02:00 +8°C° 0 mm 2 mps 745 mmHg 93%
    03:00 +7°C° 0 mm 2 mps 745 mmHg 93%
    04:00 +7°C° 0 mm 2 mps 745 mmHg 94%
    05:00 +9°C° 0 mm 3 mps 745 mmHg 89%
    06:00 +10°C° 0 mm 3 mps 744 mmHg 84%
    07:00 +11°C° 0 mm 3 mps 744 mmHg 79%
    08:00 +12°C° 0.1 mm 4 mps 744 mmHg 76%
    09:00 +12°C° 0.1 mm 4 mps 744 mmHg 74%
    10:00 +13°C° 0.1 mm 4 mps 744 mmHg 72%
    11:00 +13°C° 0.1 mm 4 mps 744 mmHg 70%
    12:00 +14°C° 0.1 mm 4 mps 743 mmHg 68%
    13:00 +15°C° 0.1 mm 4 mps 743 mmHg 66%
    14:00 +15°C° 0.3 mm 4 mps 743 mmHg 66%
    15:00 +15°C° 0.3 mm 4 mps 742 mmHg 66%
    16:00 +17°C° 0.3 mm 4 mps 742 mmHg 67%
    17:00 +16°C° 0.2 mm 3 mps 742 mmHg 72%
    18:00 +14°C° 0.2 mm 3 mps 742 mmHg 76%
    19:00 +14°C° 0.2 mm 2 mps 742 mmHg 81%
    20:00 +13°C° 0 mm 2 mps 742 mmHg 84%
    21:00 +12°C° 0 mm 2 mps 742 mmHg 87%
    22:00 +10°C° 0 mm 2 mps 742 mmHg 90%
    23:00 +9°C° 0 mm 2 mps 742 mmHg 91%

    Day after tomorrow, 4 June, Thursday

    Time Temperature Precipitation Wind Pressure Humidity
    00:00 +9°C° 0 mm 2 mps 742 mmHg 92%
    01:00 +8°C° 0 mm 2 mps 742 mmHg 94%
    02:00 +8°C° 0 mm 2 mps 741 mmHg 94%
    03:00 +8°C° 0 mm 2 mps 741 mmHg 94%
    04:00 +9°C° 0 mm 1 mps 741 mmHg 95%
    05:00 +10°C° 0 mm 1 mps 741 mmHg 90%
    06:00 +12°C° 0 mm 1 mps 741 mmHg 85%
    07:00 +14°C° 0 mm 2 mps 741 mmHg 80%
    08:00 +15°C° 0 mm 1 mps 741 mmHg 73%
    09:00 +18°C° 0 mm 1 mps 740 mmHg 65%
    10:00 +19°C° 0 mm 1 mps 740 mmHg 58%
    11:00 +20°C° 0 mm 1 mps 740 mmHg 56%
    12:00 +19°C° 0 mm 2 mps 740 mmHg 53%
    13:00 +20°C° 0 mm 2 mps 739 mmHg 51%
    14:00 +20°C° 0 mm 2 mps 739 mmHg 50%
    15:00 +22°C° 0 mm 1 mps 739 mmHg 49%
    16:00 +22°C° 0 mm 1 mps 739 mmHg 48%
    17:00 +20°C° 0 mm 1 mps 738 mmHg 54%
    18:00 +19°C° 0 mm 1 mps 738 mmHg 60%
    19:00 +18°C° 0 mm 1 mps 738 mmHg 66%
    20:00 +16°C° 0 mm 2 mps 738 mmHg 69%
    21:00 +14°C° 0 mm 3 mps 738 mmHg 73%
    22:00 +13°C° 0 mm 3 mps 738 mmHg 76%
    23:00 +13°C° 0 mm 3 mps 738 mmHg 79%

    5 June, Friday

    Time Temperature Precipitation Wind Pressure Humidity
    00:00 +12°C° 0 mm 3 mps 738 mmHg 82%
    01:00 +11°C° 0 mm 4 mps 737 mmHg 85%
    02:00 +11°C° 0 mm 4 mps 737 mmHg 86%
    03:00 +11°C° 0 mm 4 mps 737 mmHg 86%
    04:00 +11°C° 0 mm 4 mps 736 mmHg 87%
    05:00 +13°C° 0 mm 4 mps 736 mmHg 86%
    06:00 +14°C° 0 mm 5 mps 736 mmHg 85%
    07:00 +15°C° 0 mm 5 mps 736 mmHg 84%
    08:00 +17°C° 0 mm 5 mps 736 mmHg 81%
    09:00 +19°C° 0 mm 5 mps 736 mmHg 78%
    10:00 +20°C° 0 mm 5 mps 736 mmHg 75%
    11:00 +21°C° 0.1 mm 5 mps 736 mmHg 71%
    12:00 +22°C° 0.1 mm 4 mps 736 mmHg 67%
    13:00 +23°C° 0.1 mm 4 mps 736 mmHg 63%
    14:00 +23°C° 1.3 mm 4 mps 736 mmHg 66%
    15:00 +23°C° 1.3 mm 4 mps 736 mmHg 70%
    16:00 +23°C° 1.3 mm 4 mps 736 mmHg 73%
    17:00 +21°C° 1.4 mm 4 mps 736 mmHg 77%
    18:00 +20°C° 1.4 mm 4 mps 736 mmHg 81%
    19:00 +19°C° 1.4 mm 3 mps 736 mmHg 85%
    20:00 +18°C° 0.4 mm 3 mps 737 mmHg 88%
    21:00 +17°C° 0.4 mm 3 mps 737 mmHg 91%
    22:00 +16°C° 0.4 mm 3 mps 737 mmHg 93%
    23:00 +14°C° 0.3 mm 4 mps 738 mmHg 94%

    6 June, Saturday

    Time Temperature Precipitation Wind Pressure Humidity
    00:00 +14°C° 0.3 mm 4 mps 738 mmHg 94%
    01:00 +13°C° 0.3 mm 5 mps 738 mmHg 94%
    02:00 +12°C° 1.8 mm 5 mps 738 mmHg 94%
    03:00 +12°C° 1.8 mm 5 mps 739 mmHg 94%
    04:00 +10°C° 1.8 mm 6 mps 739 mmHg 94%
    05:00 +10°C° 0.2 mm 5 mps 740 mmHg 92%
    06:00 +10°C° 0.2 mm 5 mps 740 mmHg 91%
    07:00 +12°C° 0.2 mm 5 mps 741 mmHg 89%
    08:00 +13°C° 0 mm 5 mps 741 mmHg 83%
    09:00 +14°C° 0 mm 4 mps 742 mmHg 77%
    10:00 +15°C° 0 mm 4 mps 742 mmHg 71%
    11:00 +17°C° 0.1 mm 4 mps 742 mmHg 67%
    12:00 +18°C° 0.1 mm 4 mps 742 mmHg 62%
    13:00 +19°C° 0.1 mm 4 mps 743 mmHg 58%
    14:00 +19°C° 0.1 mm 4 mps 743 mmHg 58%
    15:00 +19°C° 0.1 mm 4 mps 743 mmHg 58%
    16:00 +19°C° 0.1 mm 4 mps 743 mmHg 58%
    17:00 +18°C° 0.1 mm 3 mps 743 mmHg 64%
    18:00 +17°C° 0.1 mm 3 mps 743 mmHg 71%
    19:00 +16°C° 0.1 mm 2 mps 743 mmHg 77%
    20:00 +15°C° 0 mm 2 mps 744 mmHg 79%
    21:00 +14°C° 0 mm 2 mps 744 mmHg 81%
    22:00 +13°C° 0 mm 2 mps 745 mmHg 82%
    23:00 +12°C° 0 mm 2 mps 745 mmHg 83%

    7 June, Sunday

    Time Temperature Precipitation Wind Pressure Humidity
    00:00 +12°C° 0 mm 2 mps 745 mmHg 84%
    01:00 +10°C° 0 mm 2 mps 745 mmHg 85%
    02:00 +10°C° 0 mm 2 mps 745 mmHg 86%
    03:00 +10°C° 0 mm 2 mps 745 mmHg 88%
    04:00 +10°C° 0 mm 2 mps 745 mmHg 89%
    05:00 +13°C° 0 mm 2 mps 745 mmHg 83%
    06:00 +14°C° 0 mm 2 mps 745 mmHg 78%
    07:00 +16°C° 0 mm 2 mps 746 mmHg 73%
    08:00 +17°C° 0 mm 3 mps 746 mmHg 67%
    09:00 +19°C° 0 mm 3 mps 746 mmHg 62%
    10:00 +20°C° 0 mm 3 mps 746 mmHg 57%
    11:00 +21°C° 0 mm 3 mps 746 mmHg 55%
    12:00 +21°C° 0 mm 3 mps 746 mmHg 53%
    13:00 +22°C° 0 mm 3 mps 746 mmHg 51%
    14:00 +22°C° 0 mm 3 mps 746 mmHg 53%
    15:00 +22°C° 0 mm 3 mps 746 mmHg 54%
    16:00 +23°C° 0 mm 2 mps 746 mmHg 56%
    17:00 +21°C° 0 mm 2 mps 746 mmHg 62%
    18:00 +20°C° 0 mm 2 mps 746 mmHg 68%
    19:00 +20°C° 0 mm 1 mps 746 mmHg 74%
    20:00 +19°C° 0 mm 1 mps 746 mmHg 76%
    21:00 +17°C° 0 mm 2 mps 747 mmHg 78%
    22:00 +16°C° 0 mm 2 mps 747 mmHg 80%
    23:00 +16°C° 0.3 mm 2 mps 747 mmHg 83%
    Show more